Location: Downe
(51.3167°N, 0.0500°E)
Time: 05:06:24
(UTC+00:00)

NOSS 3-4 (A) - Pass Details

Date: 17 November 2019
Orbit: 907 x 1306 km, 63.4° (Epoch: 11 December)

Event Time Altitude Azimuth Distance (km) Brightness Sun altitude
Exits shadow 04:41:05 32° 323° (NW) 1,773 4.5 -24.5°
Maximum altitude 04:44:36 74° 42° (NE) 1,169 3.9 -24.0°
Drops below altitude 10° 04:52:09 10° 128° (SE) 3,147 6.9 -22.8°
Sets 04:55:02 0° 130° (SE) 4,158 7.6 -22.3°
